| time (UTC) | temp F | wind direction | speed MPH | gust MPH | rain 1hr in | rain 24hr in | rain mn in | humidity % | barometer mb |
| 20260504080327 | 52 | 288 | 0.0 | 0.0 | 0.00 | 0.00 | 0.00 | 40 | 1012.0 |
| 20260504070323 | 56 | 358 | 2.0 | 4.0 | 0.00 | 0.00 | 0.00 | 36 | 1012.3 |
| 20260504050314 | 62 | 358 | 5.0 | 8.0 | 0.00 | 0.00 | 0.00 | 30 | 1012.3 |
| 20260504045815 | 62 | 358 | 3.0 | 10.0 | 0.00 | 0.00 | 0.00 | 30 | 1012.3 |
| 20260504045318 | 63 | 358 | 4.0 | 10.0 | 0.00 | 0.00 | 0.00 | 29 | 1012.3 |
| 20260504044820 | 63 | 221 | 5.0 | 8.0 | 0.00 | 0.00 | 0.00 | 28 | 1012.5 |
| 20260504044320 | 64 | 358 | 5.0 | 8.0 | 0.00 | 0.00 | 0.00 | 27 | 1012.4 |
| 20260504043821 | 64 | 358 | 3.0 | 6.0 | 0.00 | 0.00 | 0.00 | 25 | 1012.4 |
| 20260504043325 | 65 | 358 | 2.0 | 5.0 | 0.00 | 0.00 | 0.00 | 25 | 1012.4 |
| 20260504042827 | 65 | 358 | 1.0 | 5.0 | 0.00 | 0.00 | 0.00 | 25 | 1012.5 |
| 20260504042331 | 65 | 358 | 3.0 | 8.0 | 0.00 | 0.00 | 0.00 | 24 | 1012.5 |
| 20260504041832 | 66 | 358 | 5.0 | 11.0 | 0.00 | 0.00 | 0.00 | 24 | 1012.6 |
| 20260504041353 | 66 | 358 | 5.0 | 11.0 | 0.00 | 0.00 | 0.00 | 23 | 1012.6 |
| 20260504040812 | 66 | 358 | 3.0 | 8.0 | 0.00 | 0.00 | 0.00 | 23 | 1012.7 |
| 20260504040316 | 66 | 358 | 3.0 | 11.0 | 0.00 | 0.00 | 0.00 | 22 | 1012.6 |
| 20260504035817 | 66 | 358 | 5.0 | 15.0 | 0.00 | 0.00 | 0.00 | 21 | 1012.6 |
| 20260504035318 | 65 | 358 | 2.0 | 15.0 | 0.00 | 0.00 | 0.00 | 22 | 1012.7 |
| 20260504034820 | 65 | 358 | 4.0 | 11.0 | 0.00 | 0.00 | 0.00 | 24 | 1012.7 |
| 20260504034321 | 64 | 236 | 4.0 | 15.0 | 0.00 | 0.00 | 0.00 | 23 | 1012.7 |
| 20260504033823 | 62 | 177 | 5.0 | 9.0 | 0.00 | 0.00 | 0.00 | 29 | 1012.9 |
| 20260504033324 | 62 | 121 | 3.0 | 7.0 | 0.00 | 0.00 | 0.00 | 30 | 1013.1 |
| 20260504032826 | 62 | 39 | 3.0 | 4.0 | 0.00 | 0.00 | 0.00 | 30 | 1013.2 |
| 20260504032327 | 62 | 39 | 2.0 | 3.0 | 0.00 | 0.00 | 0.00 | 30 | 1013.3 |
| 20260504031829 | 62 | 39 | 2.0 | 3.0 | 0.00 | 0.00 | 0.00 | 31 | 1013.3 |
| 20260504031351 | 62 | 39 | 0.0 | 1.0 | 0.00 | 0.00 | 0.00 | 30 | 1013.2 |
| 20260504030813 | 62 | 39 | 0.0 | 1.0 | 0.00 | 0.00 | 0.00 | 30 | 1013.1 |
| 20260504030334 | 63 | 39 | 0.0 | 2.0 | 0.00 | 0.00 | 0.00 | 29 | 1013.1 |
| 20260504025816 | 63 | 39 | 1.0 | 2.0 | 0.00 | 0.00 | 0.00 | 29 | 1012.9 |
| 20260504025317 | 63 | 39 | 1.0 | 2.0 | 0.00 | 0.00 | 0.00 | 29 | 1012.9 |
| 20260504024840 | 63 | 39 | 1.0 | 2.0 | 0.00 | 0.00 | 0.00 | 28 | 1012.9 |
| 20260504024322 | 63 | 39 | 1.0 | 3.0 | 0.00 | 0.00 | 0.00 | 28 | 1012.9 |
| 20260504023821 | 63 | 39 | 1.0 | 3.0 | 0.00 | 0.00 | 0.00 | 29 | 1012.9 |
| 20260504023322 | 63 | 39 | 0.0 | 3.0 | 0.00 | 0.00 | 0.00 | 28 | 1012.9 |
| 20260504022825 | 63 | 39 | 1.0 | 3.0 | 0.00 | 0.00 | 0.00 | 28 | 1012.9 |
| 20260504022348 | 63 | 39 | 1.0 | 3.0 | 0.00 | 0.00 | 0.00 | 28 | 1012.9 |
| 20260504021829 | 63 | 39 | 1.0 | 3.0 | 0.00 | 0.00 | 0.00 | 28 | 1012.9 |
| 20260504021331 | 63 | 39 | 0.0 | 2.0 | 0.00 | 0.00 | 0.00 | 28 | 1012.9 |
| 20260504020812 | 63 | 39 | 0.0 | 2.0 | 0.00 | 0.00 | 0.00 | 28 | 1012.9 |
| 20260504020315 | 64 | 39 | 1.0 | 4.0 | 0.00 | 0.00 | 0.00 | 28 | 1012.9 |
| 20260504015816 | 64 | 39 | 1.0 | 4.0 | 0.00 | 0.00 | 0.00 | 28 | 1013.0 |
| 20260504015317 | 64 | 38 | 1.0 | 3.0 | 0.00 | 0.00 | 0.00 | 27 | 1012.9 |
| 20260504014819 | 64 | 38 | 1.0 | 4.0 | 0.00 | 0.00 | 0.00 | 27 | 1012.9 |
| 20260504014341 | 65 | 38 | 2.0 | 6.0 | 0.00 | 0.00 | 0.00 | 26 | 1012.9 |
| 20260504013842 | 65 | 36 | 3.0 | 10.0 | 0.00 | 0.00 | 0.00 | 26 | 1012.9 |
| 20260504013321 | 65 | 38 | 5.0 | 10.0 | 0.00 | 0.00 | 0.00 | 25 | 1012.9 |
| 20260504012843 | 66 | 348 | 4.0 | 6.0 | 0.00 | 0.00 | 0.00 | 25 | 1012.9 |
| 20260504012339 | 66 | 293 | 2.0 | 4.0 | 0.00 | 0.00 | 0.00 | 24 | 1012.9 |
| 20260504011819 | 66 | 293 | 2.0 | 4.0 | 0.00 | 0.00 | 0.00 | 24 | 1012.9 |
| 20260504011322 | 66 | 291 | 0.0 | 6.0 | 0.00 | 0.00 | 0.00 | 24 | 1012.9 |
| 20260504010843 | 66 | 358 | 3.0 | 6.0 | 0.00 | 0.00 | 0.00 | 24 | 1013.0 |
| 20260504010324 | 66 | 358 | 2.0 | 5.0 | 0.00 | 0.00 | 0.00 | 24 | 1013.0 |
| 20260504005827 | 66 | 358 | 3.0 | 8.0 | 0.00 | 0.00 | 0.00 | 24 | 1013.1 |
| 20260504005326 | 66 | 358 | 3.0 | 12.0 | 0.00 | 0.00 | 0.00 | 24 | 1013.1 |
| 20260504004828 | 67 | 358 | 3.0 | 14.0 | 0.00 | 0.00 | 0.00 | 24 | 1013.2 |
| 20260504004330 | 67 | 358 | 4.0 | 16.0 | 0.00 | 0.00 | 0.00 | 24 | 1013.3 |
| 20260504003829 | 67 | 358 | 5.0 | 16.0 | 0.00 | 0.00 | 0.00 | 24 | 1013.5 |
| 20260504003331 | 67 | 358 | 5.0 | 12.0 | 0.00 | 0.00 | 0.00 | 23 | 1013.5 |
| 20260504002832 | 68 | 358 | 3.0 | 13.0 | 0.00 | 0.00 | 0.00 | 22 | 1013.1 |
| 20260504002315 | 67 | 358 | 6.0 | 13.0 | 0.00 | 0.00 | 0.00 | 22 | 1013.1 |
| 20260504001817 | 68 | 358 | 3.0 | 11.0 | 0.00 | 0.00 | 0.00 | 22 | 1012.8 |
| 20260504001319 | 68 | 358 | 4.0 | 11.0 | 0.00 | 0.00 | 0.00 | 22 | 1012.6 |
| 20260504000820 | 68 | 358 | 5.0 | 10.0 | 0.00 | 0.00 | 0.00 | 22 | 1012.5 |
| 20260504000320 | 68 | 358 | 4.0 | 10.0 | 0.00 | 0.00 | 0.00 | 23 | 1012.6 |
| 20260503235821 | 68 | 358 | 3.0 | 10.0 | 0.00 | 0.00 | 0.00 | 22 | 1012.5 |
| 20260503235322 | 68 | 358 | 5.0 | 16.0 | 0.00 | 0.00 | 0.00 | 23 | 1012.5 |
| 20260503234823 | 68 | 358 | 4.0 | 16.0 | 0.00 | 0.00 | 0.00 | 22 | 1012.6 |
| 20260503234324 | 69 | 358 | 3.0 | 14.0 | 0.00 | 0.00 | 0.00 | 23 | 1012.8 |
| 20260503233823 | 70 | 358 | 7.0 | 12.0 | 0.00 | 0.00 | 0.00 | 22 | 1012.9 |
| 20260503233323 | 70 | 358 | 4.0 | 13.0 | 0.00 | 0.00 | 0.00 | 20 | 1012.9 |
| 20260503232823 | 69 | 358 | 4.0 | 13.0 | 0.00 | 0.00 | 0.00 | 20 | 1012.9 |
| 20260503232325 | 69 | 358 | 7.0 | 20.0 | 0.00 | 0.00 | 0.00 | 20 | 1012.8 |
| 20260503231828 | 70 | 358 | 8.0 | 20.0 | 0.00 | 0.00 | 0.00 | 19 | 1012.7 |
| 20260503231329 | 70 | 337 | 5.0 | 18.0 | 0.00 | 0.00 | 0.00 | 19 | 1012.6 |
| 20260503230830 | 71 | 14 | 5.0 | 10.0 | 0.00 | 0.00 | 0.00 | 18 | 1012.7 |
| 20260503230353 | 71 | 296 | 3.0 | 11.0 | 0.00 | 0.00 | 0.00 | 17 | 1012.6 |
| 20260503225829 | 71 | 241 | 7.0 | 11.0 | 0.00 | 0.00 | 0.00 | 17 | 1012.6 |
| 20260503225330 | 71 | 284 | 2.0 | 13.0 | 0.00 | 0.00 | 0.00 | 17 | 1012.7 |
| 20260503224831 | 71 | 326 | 5.0 | 13.0 | 0.00 | 0.00 | 0.00 | 17 | 1012.7 |
| 20260503224314 | 71 | 3 | 7.0 | 14.0 | 0.00 | 0.00 | 0.00 | 17 | 1012.7 |
| 20260503223816 | 71 | 11 | 7.0 | 14.0 | 0.00 | 0.00 | 0.00 | 17 | 1012.6 |
| 20260503223316 | 71 | 11 | 4.0 | 14.0 | 0.00 | 0.00 | 0.00 | 18 | 1012.6 |
| 20260503222837 | 71 | 15 | 7.0 | 16.0 | 0.00 | 0.00 | 0.00 | 17 | 1012.7 |
| 20260503222320 | 71 | 36 | 9.0 | 16.0 | 0.00 | 0.00 | 0.00 | 18 | 1012.9 |
| 20260503221818 | 72 | 353 | 7.0 | 13.0 | 0.00 | 0.00 | 0.00 | 18 | 1012.8 |
| 20260503221321 | 71 | 353 | 5.0 | 11.0 | 0.00 | 0.00 | 0.00 | 17 | 1012.9 |
| 20260503220821 | 71 | 353 | 6.0 | 12.0 | 0.00 | 0.00 | 0.00 | 17 | 1012.9 |
| 20260503220324 | 72 | 353 | 3.0 | 12.0 | 0.00 | 0.00 | 0.00 | 16 | 1012.9 |
| 20260503215826 | 72 | 335 | 5.0 | 12.0 | 0.00 | 0.00 | 0.00 | 17 | 1012.9 |
| 20260503215328 | 72 | 319 | 3.0 | 9.0 | 0.00 | 0.00 | 0.00 | 17 | 1013.1 |
| 20260503214831 | 72 | 317 | 4.0 | 10.0 | 0.00 | 0.00 | 0.00 | 15 | 1013.3 |
| 20260503214313 | 72 | 318 | 5.0 | 10.0 | 0.00 | 0.00 | 0.00 | 15 | 1013.3 |
| 20260503213814 | 73 | 311 | 4.0 | 10.0 | 0.00 | 0.00 | 0.00 | 15 | 1013.3 |
| 20260503213315 | 72 | 293 | 2.0 | 9.0 | 0.00 | 0.00 | 0.00 | 16 | 1013.3 |
| 20260503212817 | 73 | 290 | 4.0 | 10.0 | 0.00 | 0.00 | 0.00 | 15 | 1013.3 |
| 20260503212318 | 73 | 283 | 4.0 | 10.0 | 0.00 | 0.00 | 0.00 | 15 | 1013.5 |
| 20260503211820 | 74 | 279 | 4.0 | 9.0 | 0.00 | 0.00 | 0.00 | 15 | 1013.5 |
| 20260503211322 | 74 | 266 | 3.0 | 8.0 | 0.00 | 0.00 | 0.00 | 14 | 1013.5 |
| 20260503210823 | 74 | 265 | 3.0 | 12.0 | 0.00 | 0.00 | 0.00 | 14 | 1013.7 |
| 20260503210324 | 75 | 286 | 3.0 | 12.0 | 0.00 | 0.00 | 0.00 | 14 | 1013.7 |
| 20260503205826 | 75 | 302 | 2.0 | 13.0 | 0.00 | 0.00 | 0.00 | 14 | 1013.8 |
| 20260503205328 | 74 | 300 | 6.0 | 13.0 | 0.00 | 0.00 | 0.00 | 14 | 1013.9 |
| 20260503204827 | 74 | 19 | 4.0 | 9.0 | 0.00 | 0.00 | 0.00 | 15 | 1014.0 |
| 20260503204330 | 75 | 13 | 5.0 | 9.0 | 0.00 | 0.00 | 0.00 | 14 | 1014.1 |
| 20260503203829 | 75 | 8 | 2.0 | 11.0 | 0.00 | 0.00 | 0.00 | 13 | 1014.2 |
| 20260503203330 | 75 | 343 | 4.0 | 11.0 | 0.00 | 0.00 | 0.00 | 14 | 1014.2 |
| 20260503202813 | 73 | 168 | 2.0 | 8.0 | 0.00 | 0.00 | 0.00 | 15 | 1014.3 |
| 20260503202315 | 73 | 173 | 3.0 | 10.0 | 0.00 | 0.00 | 0.00 | 14 | 1014.4 |
| 20260503201817 | 72 | 170 | 5.0 | 9.0 | 0.00 | 0.00 | 0.00 | 15 | 1014.5 |
| 20260503201317 | 71 | 358 | 3.0 | 6.0 | 0.00 | 0.00 | 0.00 | 15 | 1014.6 |
| 20260503200818 | 71 | 353 | 2.0 | 6.0 | 0.00 | 0.00 | 0.00 | 16 | 1014.7 |
| 20260503200337 | 72 | 347 | 5.0 | 10.0 | 0.00 | 0.00 | 0.00 | 14 | 1014.8 |
| 20260503195817 | 72 | 341 | 4.0 | 9.0 | 0.00 | 0.00 | 0.00 | 15 | 1014.9 |
| 20260503195317 | 72 | 340 | 2.0 | 9.0 | 0.00 | 0.00 | 0.00 | 15 | 1014.9 |
| 20260503194818 | 72 | 348 | 3.0 | 8.0 | 0.00 | 0.00 | 0.00 | 15 | 1014.9 |
| 20260503194339 | 71 | 20 | 3.0 | 6.0 | 0.00 | 0.00 | 0.00 | 15 | 1015.0 |
| 20260503193818 | 71 | 19 | 1.0 | 10.0 | 0.00 | 0.00 | 0.00 | 15 | 1015.0 |
| 20260503193317 | 71 | 18 | 3.0 | 13.0 | 0.00 | 0.00 | 0.00 | 16 | 1015.1 |
| 20260503192820 | 71 | 26 | 8.0 | 13.0 | 0.00 | 0.00 | 0.00 | 15 | 1015.2 |
| 20260503192321 | 71 | 29 | 5.0 | 11.0 | 0.00 | 0.00 | 0.00 | 16 | 1015.2 |
| 20260503191837 | 71 | 74 | 4.0 | 10.0 | 0.00 | 0.00 | 0.00 | 15 | 1015.3 |
| 20260503191316 | 71 | 185 | 2.0 | 8.0 | 0.00 | 0.00 | 0.00 | 17 | 1015.3 |
| 20260503190819 | 70 | 184 | 3.0 | 9.0 | 0.00 | 0.00 | 0.00 | 17 | 1015.5 |
| 20260503190320 | 70 | 183 | 5.0 | 9.0 | 0.00 | 0.00 | 0.00 | 17 | 1015.6 |
| 20260503185822 | 70 | 240 | 2.0 | 8.0 | 0.00 | 0.00 | 0.00 | 17 | 1015.7 |
| 20260503185322 | 69 | 236 | 3.0 | 7.0 | 0.00 | 0.00 | 0.00 | 18 | 1015.8 |
| 20260503184843 | 69 | 235 | 3.0 | 8.0 | 0.00 | 0.00 | 0.00 | 17 | 1015.9 |
| 20260503184323 | 69 | 241 | 4.0 | 8.0 | 0.00 | 0.00 | 0.00 | 17 | 1016.0 |
| 20260503183824 | 69 | 255 | 1.0 | 8.0 | 0.00 | 0.00 | 0.00 | 18 | 1016.2 |
| 20260503183324 | 69 | 250 | 3.0 | 5.0 | 0.00 | 0.00 | 0.00 | 18 | 1016.3 |
| 20260503182845 | 68 | 358 | 3.0 | 9.0 | 0.00 | 0.00 | 0.00 | 19 | 1016.4 |
| 20260503182326 | 68 | 358 | 3.0 | 9.0 | 0.00 | 0.00 | 0.00 | 19 | 1016.5 |
| 20260503181825 | 68 | 358 | 4.0 | 9.0 | 0.00 | 0.00 | 0.00 | 20 | 1016.6 |
| 20260503181325 | 68 | 358 | 4.0 | 8.0 | 0.00 | 0.00 | 0.00 | 20 | 1016.6 |
| 20260503180827 | 67 | 358 | 3.0 | 12.0 | 0.00 | 0.00 | 0.00 | 19 | 1016.6 |
| 20260503180327 | 68 | 230 | 7.0 | 12.0 | 0.00 | 0.00 | 0.00 | 20 | 1016.7 |
| 20260503175829 | 68 | 224 | 8.0 | 10.0 | 0.00 | 0.00 | 0.00 | 20 | 1016.8 |
| 20260503175331 | 67 | 225 | 5.0 | 12.0 | 0.00 | 0.00 | 0.00 | 20 | 1016.9 |
| 20260503174812 | 68 | 227 | 4.0 | 13.0 | 0.00 | 0.00 | 0.00 | 20 | 1016.9 |
| 20260503174332 | 67 | 234 | 3.0 | 9.0 | 0.00 | 0.00 | 0.00 | 21 | 1017.0 |
| 20260503173831 | 67 | 233 | 3.0 | 10.0 | 0.00 | 0.00 | 0.00 | 21 | 1017.1 |
| 20260503173331 | 67 | 358 | 4.0 | 10.0 | 0.00 | 0.00 | 0.00 | 21 | 1017.3 |
| 20260503172853 | 66 | 237 | 6.0 | 11.0 | 0.00 | 0.00 | 0.00 | 21 | 1017.3 |
| 20260503172332 | 66 | 252 | 4.0 | 10.0 | 0.00 | 0.00 | 0.00 | 22 | 1017.4 |
| 20260503171813 | 66 | 265 | 5.0 | 12.0 | 0.00 | 0.00 | 0.00 | 22 | 1017.5 |
| 20260503171335 | 66 | 358 | 5.0 | 12.0 | 0.00 | 0.00 | 0.00 | 22 | 1017.6 |
| 20260503170832 | 66 | 233 | 3.0 | 10.0 | 0.00 | 0.00 | 0.00 | 22 | 1017.7 |
| 20260503170313 | 66 | 234 | 6.0 | 11.0 | 0.00 | 0.00 | 0.00 | 22 | 1017.7 |
| 20260503150813 | 63 | 211 | 6.0 | 12.0 | 0.00 | 0.00 | 0.00 | 26 | 1018.2 |
| 20260503150315 | 63 | 358 | 7.0 | 12.0 | 0.00 | 0.00 | 0.00 | 27 | 1018.2 |
| 20260503140314 | 55 | 358 | 4.0 | 10.0 | 0.00 | 0.00 | 0.00 | 36 | 1018.5 |
| 20260503131324 | 52 | 358 | 4.0 | 10.0 | 0.00 | 0.00 | 0.00 | 37 | 1018.4 |
| 20260503130847 | 52 | 358 | 5.0 | 8.0 | 0.00 | 0.00 | 0.00 | 38 | 1018.4 |
| 20260503130329 | 51 | 358 | 3.0 | 6.0 | 0.00 | 0.00 | 0.00 | 38 | 1018.4 |
| 20260503110827 | 50 | 196 | 5.0 | 8.0 | 0.00 | 0.00 | 0.00 | 38 | 1017.4 |
| 20260503110331 | 50 | 192 | 3.0 | 5.0 | 0.00 | 0.00 | 0.00 | 39 | 1017.4 |
| 20260503090330 | 51 | 200 | 3.0 | 6.0 | 0.00 | 0.00 | 0.00 | 36 | 1017.9 |
| 20260503081526 | 52 | 192 | 3.0 | 5.0 | 0.00 | 0.00 | 0.00 | 35 | 1017.9 |
| 20260503080821 | 52 | 191 | 3.0 | 6.0 | 0.00 | 0.00 | 0.00 | 35 | 1017.9 |